This demonstration page uses our WeatherBlox Daily Observations layout. Learn more.

Left ArrowRight Arrow

39.51506, -84.39828

Hourly Observations for July 14, 2021

Temp ( °F °C ) Dew Point ( °F °C ) Humidity (%) Winds ( mph kmh ) Pressure ( in mb ) Visibility ( mi km ) Precip ( " mm )
12:15 am 00:15 Cloudy with Haze 70 21 N/A N/A WSW 3 6 30.14 1021 5 8 N/A
12:35 am 00:35 Hazy 70 21 N/A N/A N N/A 30.14 1021 5 8 N/A
12:55 am 00:55 Mostly Cloudy with Haze 70 21 N/A N/A SW 5 7 30.15 1021 5 8 N/A
1:15 am 01:15 Hazy 70 21 N/A N/A SW 7 11 30.15 1021 7 11 N/A
1:35 am 01:35 Clear 70 21 N/A N/A SW 7 11 30.16 1021 7 11 N/A
1:55 am 01:55 Mostly Cloudy with Haze 70 21 N/A N/A SW 6 9 30.16 1021 7 11 N/A
2:15 am 02:15 Mostly Cloudy 70 21 N/A N/A SW 6 9 30.16 1021 7 11 N/A
2:35 am 02:35 Partly Cloudy 70 21 N/A N/A SW 6 9 30.16 1021 7 11 N/A
2:55 am 02:55 Partly Cloudy 68 20 N/A N/A SW 5 7 30.16 1021 7 11 N/A
3:15 am 03:15 Mostly Cloudy with Haze 68 20 N/A N/A SW 5 7 30.16 1021 7 11 N/A
3:35 am 03:35 Hazy 68 20 N/A N/A SW 6 9 30.16 1021 5 8 N/A
3:55 am 03:55 Hazy 68 20 N/A N/A SW 5 7 30.16 1021 7 11 N/A
4:15 am 04:15 Hazy 68 20 N/A N/A WSW 3 6 30.17 1022 5 8 N/A
4:35 am 04:35 Hazy 68 20 N/A N/A WSW 3 6 30.17 1022 5 8 N/A
4:55 am 04:55 Cloudy with Mist and Fog 68 20 N/A N/A N N/A 30.17 1022 3 5 N/A
5:15 am 05:15 Cloudy with Haze 68 20 N/A N/A SW 3 6 30.17 1022 7 11 N/A
5:55 am 05:55 Mostly Cloudy with Mist and Fog 68 20 N/A N/A N N/A 30.18 1022 3 5 N/A
6:15 am 06:15 Mostly Cloudy with Mist and Fog 68 20 N/A N/A SSW 3 6 30.18 1022 4 6 N/A
6:35 am 06:35 Cloudy with Mist and Fog 66 19 N/A N/A N N/A 30.19 1022 1 2 N/A
6:55 am 06:55 Cloudy with Fog 66 19 N/A N/A N N/A 30.20 1023 0 0 N/A
7:15 am 07:15 Cloudy with Mist and Fog 68 20 N/A N/A N N/A 30.19 1023 1 2 N/A
7:35 am 07:35 Cloudy with Mist and Fog 68 20 N/A N/A N N/A 30.19 1023 2 3 N/A
7:55 am 07:55 Cloudy with Mist and Fog 70 21 N/A N/A WSW 3 6 30.20 1023 3 5 N/A
8:15 am 08:15 Cloudy with Haze 70 21 N/A N/A SW 5 7 30.20 1023 4 6 N/A
8:35 am 08:35 Cloudy with Haze 70 21 N/A N/A SW 5 7 30.20 1023 5 8 N/A
8:55 am 08:55 Cloudy 70 21 N/A N/A SW 5 7 30.20 1023 7 11 N/A
9:15 am 09:15 Cloudy 72 22 N/A N/A SW 3 6 30.21 1023 7 11 N/A
9:35 am 09:35 Cloudy 72 22 N/A N/A SSW 5 7 30.21 1023 10 16 N/A
9:55 am 09:55 Cloudy 73 22.6 72 22.3 98 98 SW 5 7 30.21 1023 10 16 N/A
10:15 am 10:15 Cloudy 73 22.9 72 22.3 96 96 SSW 7 11 30.21 1023 10 16 N/A
10:35 am 10:35 Cloudy 74 23.4 72 22.3 94 94 SW 6 9 30.21 1023 10 16 N/A
10:55 am 10:55 Cloudy 75 24 73 22.5 91 91 WSW 5 7 30.22 1023 10 16 N/A
11:15 am 11:15 Mostly Cloudy 77 25.1 73 22.5 86 86 WSW 6 9 30.21 1023 10 16 N/A
11:35 am 11:35 Cloudy 77 25 71 21.8 82 82 NNW 3 6 30.21 1023 10 16 N/A
11:55 am 11:55 Mostly Cloudy 78 25.6 72 22.2 82 82 SSW 7 11 30.20 1023 10 16 N/A
12:15 pm 12:15 Mostly Cloudy 79 25.9 71 21.6 77 77 W 5 7 30.20 1023 10 16 N/A
12:35 pm 12:35 Cloudy 80 26.4 71 21.9 76 76 WSW 7 11 30.20 1023 10 16 N/A
12:55 pm 12:55 Cloudy 80 26.6 70 21.2 72 72 WSW 7 11 30.20 1023 10 16 N/A
1:15 pm 13:15 Partly Cloudy 82 27.8 71 21.8 70 70 SW 8 13 30.19 1022 10 16 N/A
1:35 pm 13:35 Mostly Cloudy 82 27.9 70 21.3 67 67 W 8 13 30.19 1022 10 16 N/A
1:55 pm 13:55 Partly Cloudy 82 27.9 69 20.7 65 65 SW 8 13 30.19 1022 10 16 0.01 0.25
2:15 pm 14:15 Partly Cloudy 83 28.2 69 20.3 62 62 W 8 13 30.18 1022 10 16 0.01 0.25
2:35 pm 14:35 Partly Cloudy 83 28.1 69 20.5 63 63 W 6 9 30.17 1022 10 16 0.03 0.76
2:55 pm 14:55 Sunny 83 28.3 69 20.3 62 62 WSW 5 7 30.16 1021 10 16 0.05 1.27
3:15 pm 15:15 Partly Cloudy 84 28.7 69 20.7 62 62 WSW 10 17 30.15 1021 10 16 0.01 0.25
3:35 pm 15:35 Sunny 84 28.9 67 19.2 56 56 SW 7 11 30.14 1021 10 16 0.03 0.76
3:55 pm 15:55 Sunny 84 29.1 68 19.9 58 58 WSW 9 15 30.14 1021 10 16 0.04 1.02
4:15 pm 16:15 Sunny 84 29.1 67 19.2 55 55 SW 10 17 30.13 1020 10 16 0.01 0.25
4:35 pm 16:35 Sunny 85 29.3 66 18.9 54 54 WSW 8 13 30.13 1020 10 16 0.03 0.76
4:55 pm 16:55 Sunny 85 29.4 67 19.2 54 54 WSW 10 17 30.13 1020 10 16 0.04 1.02
5:15 pm 17:15 Sunny 85 29.2 66 18.7 53 53 WSW 9 15 30.13 1020 10 16 0.01 0.25
5:35 pm 17:35 Sunny 85 29.3 66 18.9 54 54 W 9 15 30.12 1020 10 16 0.03 0.76
5:55 pm 17:55 Sunny 84 29 66 18.9 54 54 SW 10 17 30.12 1020 10 16 0.04 1.02
6:15 pm 18:15 Sunny 84 28.9 67 19.7 58 58 W 9 15 30.12 1020 10 16 0.01 0.25
6:35 pm 18:35 Sunny 83 28.6 65 18.4 54 54 WSW 8 13 30.12 1020 10 16 0.02 0.51
6:55 pm 18:55 Sunny 83 28.5 67 19.2 57 57 WSW 7 11 30.13 1020 10 16 0.03 0.76
7:15 pm 19:15 Sunny 83 28.1 66 19.1 58 58 WSW 7 11 30.13 1020 10 16 0.01 0.25
7:35 pm 19:35 Sunny 82 27.7 67 19.4 61 61 W 5 7 30.12 1020 10 16 0.01 0.25
7:55 pm 19:55 Sunny 80 26.7 69 20.4 68 68 W 3 6 30.12 1020 10 16 0.02 0.51
8:15 pm 20:15 Sunny 77 25.1 76 24.3 95 95 N N/A 30.12 1020 10 16 N/A
8:35 pm 20:35 Sunny 76 24.5 75 23.7 95 95 N N/A 30.11 1020 10 16 0.01 0.25
8:55 pm 20:55 Sunny 75 24 73 23 94 94 N N/A 30.13 1020 10 16 0.01 0.25
9:15 pm 21:15 Clear 73 22.9 73 22.8 99 99 NNW 3 6 30.12 1020 10 16 N/A
9:35 pm 21:35 Clear 72 22 N/A N/A N N/A 30.12 1020 10 16 0.01 0.25
9:55 pm 21:55 Clear 72 22 N/A N/A N N/A 30.12 1020 10 16 0.01 0.25
10:15 pm 22:15 Clear 70 21 N/A N/A N N/A 30.13 1020 10 16 0.01 0.25
10:35 pm 22:35 Clear 70 21 N/A N/A N N/A 30.13 1020 10 16 0.02 0.51
10:55 pm 22:55 Clear 70 21 N/A N/A NW 3 6 30.13 1020 10 16 0.02 0.51
11:15 pm 23:15 Clear 70 21 N/A N/A N N/A 30.13 1020 10 16 N/A
11:35 pm 23:35 Clear 68 20 N/A N/A NW 3 6 30.14 1021 10 16 0.01 0.25
11:55 pm 23:55 Clear 68 20 N/A N/A N N/A 30.14 1021 10 16 0.01 0.25

Powered by AerisWeather